Regional Weather Roundup
Issued by NWS

Home | Current Version | Previous Version | Graphics & Text | Print | Product List | Glossary On
Versions: 1 2 3 4 5 6 7 8 9 10 11 12 13 14 15 16 17 18 19 20 21 22 23 24 25 26 27 28 29 30 31 32 33 34 35 36 37 38 39 40 41 42 43 44 45 46 47 48 49 50
801
ASUS45 KBOU 230507
RWRCO

WEATHER ROUNDUP FOR COLORADO
NATIONAL WEATHER SERVICE DENVER/BOULDER CO
1000 PM MST WED FEB 22 2017

NOTE: "FAIR" INDICATES FEW OR NO CLOUDS BELOW 12000 FEET WITH NO
SIGNIFICANT WEATHER AND/OR OBSTRUCTIONS TO VISIBILITY.

COZ001>005-013-030-031-230600-
...NORTHWEST COLORADO...

CITY           SKY/WX    TMP DP  RH WIND       PRES   REMARKS
CRAIG          CLOUDY    30  26  85 CALM      29.62F
HAYDEN         FAIR      28  25  86 SE5       29.59F WCI  23
MEEKER         MOCLDY    30  27  88 E6        29.60F WCI  24
MOUNT WERNER   NOT AVBL
STEAMBOAT SPGS MOCLDY    28  28  97 CALM      29.60F VSB 1
WALDEN         NOT AVBL
$$

COZ006>008-011-230600-
...WEST CENTRAL VALLEYS...

CITY           SKY/WX    TMP DP  RH WIND       PRES   REMARKS
GRAND JUNCTION FAIR      43  22  43 SE9       29.54F
MONTROSE       FAIR      51  20  29 S15G25    29.64F
EAGLE          CLEAR     46  19  34 NW5       29.61F
RIFLE          FAIR      52  14  22 SW9G21    29.55F
DELTA          FAIR      44  21  39 NE5       29.60F
NUCLA          FAIR      50  23  34 S20G30    29.67F
$$

COZ017>023-064>068-230600-
...SOUTHWEST COLORADO...

CITY           SKY/WX    TMP DP  RH WIND       PRES   REMARKS
DURANGO        FAIR      45  18  34 S12       29.78F
CORTEZ         FAIR      45  18  34 S16       29.73F
PAGOSA SPRINGS FAIR      45  13  28 SW15      29.82F
TELLURIDE      FAIR      38  10  31 S13G30    29.77F
WOLF CREEK PAS CLOUDY    23  14  68 S31G46    29.86F WCI   5
$$

COZ009-010-012-014-032>034-037-058>063-230600-
...CENTRAL COLORADO...

CITY           SKY/WX    TMP DP  RH WIND       PRES   REMARKS
ASPEN          CLOUDY    42  20  41 CALM      29.64F
BUENA VISTA    FAIR      37  20  49 CALM      29.71F
COPPER MTN     CLOUDY    28   9  43 S8        29.77F WCI  20
BERTHOUD PASS  SNOW      14   3  62 E30G36    29.76F VSB<1/4 WCI  -7
COTTONWOOD PAS FAIR      37  12  35 S8G20     29.75F
GUNNISON       FAIR      29  23  78 CALM      29.71F
KREMMLING      FAIR      34  30  86 CALM      29.64F
LEADVILLE      CLOUDY    30  11  45 S9        29.72F WCI  22
MONARCH PASS   CLOUDY    23  18  80 SW35G41   29.89F WCI   4
SALIDA         FAIR      43  22  42 CALM      29.79F
SUNLIGHT       NOT AVBL
WILKERSON PASS FAIR      27  14  59 S9G24     29.83F WCI  17
$$

COZ069>075-230600-
...SAN LUIS VALLEY/SANGRE DE CRISTO MOUNTAINS...

CITY           SKY/WX    TMP DP  RH WIND       PRES   REMARKS
ALAMOSA        FAIR      38  28  67 S18G25    29.78F
LA VETA PASS   CLOUDY    32  21  64 N23G35    29.87F WCI  19
SAGUACHE       FAIR      32  23  69 E7        29.76F WCI  26
$$

COZ035-036-038>040-230600-
...NORTHERN COLORADO FRONT RANGE...

CITY           SKY/WX    TMP DP  RH WIND       PRES   REMARKS
DENVER INTL AP FAIR      32  18  56 NW9       29.77F WCI  24
DMNS CITY PARK   N/A     38  24  57 N2G8      29.78F
AURORA         PTCLDY    31  17  54 NW8       29.78F WCI  24
FRONT RANGE AP NOT AVBL
ERIE MUNI ARPT FAIR      38  26  63 N5        29.79S
BOULDER MUN AP MOCLDY    37  28  70 CALM      29.78F
CENTENNIAL     MOCLDY    38  18  44 NE3       29.78F
BROOMFIELD     MOCLDY    37  27  65 N5        29.80R
FORT COLLINS   FAIR      35  26  69 N9        29.78F WCI  28
LONGMONT       MOCLDY    39  28  64 CALM      29.81R
$$

COZ041-046-047-076>085-087-088-230600-
...PIKES PEAK/PALMER DIVIDE AND SOUTHERN FOOTHILLS...

CITY           SKY/WX    TMP DP  RH WIND       PRES   REMARKS
COLO. SPRINGS  FAIR      41  17  38 N24       29.72F
A. F. ACADEMY  FAIR      37  15  40 N16G23    29.75S
SCHRIEVER AFB  FAIR      39  17  41 N20G32    29.71F
ELLICOTT       FAIR     N/A N/A N/A N18       29.69F
FALCON         FAIR      35  15  44 N20G26    29.73F WCI  24
FORT CARSON    FAIR      43  17  35 NW18G28   29.70F
LIMON          FAIR      38  19  46 N10G18    29.70F
MONUMENT HILL  FAIR      30  16  55 N8        29.79F WCI  23
TRINIDAD       FAIR      52  25  35 SW23G35   29.76F
$$

COZ042>045-048>051-090-091-230600-
...NORTHEAST COLORADO...

CITY           SKY/WX    TMP DP  RH WIND       PRES   REMARKS
GREELEY ARPT   NOT AVBL
AKRON          FAIR      30  15  53 N10       29.73F WCI  21
BURLINGTON     FAIR      42  21  43 E10       29.69F
WRAY           NOT AVBL
STERLING       FAIR      32  18  55 N7        29.74F WCI  26
HOLYOKE        FAIR      34  21  60 N8        29.74S WCI  27
FORT MORGAN    FAIR      34  19  55 N14       29.76S WCI  24
$$

COZ086-089-092>099-230600-
...SOUTHEAST COLORADO...

CITY           SKY/WX    TMP DP  RH WIND       PRES   REMARKS
PUEBLO         FAIR      53  24  32 W5        29.64F
LA JUNTA       FAIR      55  17  22 SW13      29.65S
LAMAR          FAIR      49  23  36 SE5       29.64F
SPRINGFIELD      N/A     58  23  26 SW18G26   29.68F
$$




USA.gov is the U.S. government's official web portal to all federal, state and local government web resources and services.